IT9IRS-1 Weather Reports


time (UTC)temp
C
wind
direction
speed
KPH
gust
KPH
rain 1hr
cm
rain 24hr
cm
rain mn
cm
humidity
%
barometer
mb
20260906113503 31 292 30.6 41.8 0.00 0.00 0.00 58 1016.3
20260906113003 31 299 29.0 41.8 0.00 0.00 0.00 59 1016.3
20260906112503 31 296 25.7 35.4 0.00 0.00 0.00 58 1016.3
20260906112004 31 286 25.7 33.8 0.00 0.00 0.00 57 1016.3
20260906111503 31 292 27.4 32.2 0.00 0.00 0.00 59 1016.3
20260906111003 31 287 27.4 37.0 0.00 0.00 0.00 59 1016.3
20260906110503 31 290 27.4 37.0 0.00 0.00 0.00 58 1016.3
20260906110004 31 289 27.4 37.0 0.00 0.00 0.00 58 1016.3
20260906105503 31 278 24.1 35.4 0.00 0.00 0.00 59 1016.3
20260906105003 31 271 25.7 29.0 0.00 0.00 0.00 59 1016.3
20260906104503 31 277 25.7 38.6 0.00 0.00 0.00 59 1016.3
20260906104003 31 291 27.4 38.6 0.00 0.00 0.00 61 1016.3
20260906103714 31 299 27.4 37.0 0.00 0.00 0.00 61 1016.3
20260906103217 31 305 29.0 37.0 0.00 0.00 0.00 61 1016.3
20260906102504 31 283 27.4 38.6 0.00 0.00 0.00 61 1016.3
20260906102004 31 287 29.0 38.6 0.00 0.00 0.00 62 1016.3
20260906101504 31 291 27.4 38.6 0.00 0.00 0.00 63 1016.3
20260906101004 31 283 24.1 37.0 0.00 0.00 0.00 64 1016.3
20260906100505 31 277 25.7 37.0 0.00 0.00 0.00 64 1016.3
20260906100004 30 272 25.7 33.8 0.00 0.00 0.00 65 1016.3
20260906095505 30 270 27.4 35.4 0.00 0.00 0.00 66 1016.3
20260906095215 30 272 27.4 35.4 0.00 0.00 0.00 66 1016.3
20260906094713 30 274 27.4 35.4 0.00 0.00 0.00 66 1016.3
20260906094004 30 283 29.0 35.4 0.00 0.00 0.00 67 1016.3
20260906093504 30 291 25.7 35.4 0.00 0.00 0.00 68 1016.3
20260906093004 30 288 22.5 33.8 0.00 0.00 0.00 69 1016.3
20260906092504 30 279 22.5 33.8 0.00 0.00 0.00 68 1016.3
20260906092004 30 277 24.1 33.8 0.00 0.00 0.00 69 1016.3
20260906091504 30 283 24.1 33.8 0.00 0.00 0.00 70 1016.3
20260906091004 30 278 22.5 29.0 0.00 0.00 0.00 70 1016.3
20260906090717 30 279 22.5 29.0 0.00 0.00 0.00 71 1016.3
20260906090004 30 286 22.5 30.6 0.00 0.00 0.00 70 1016.3
20260906085504 30 290 20.9 27.4 0.00 0.00 0.00 71 1016.3
20260906085004 30 280 20.9 27.4 0.00 0.00 0.00 72 1016.3
20260906084504 30 283 19.3 24.1 0.00 0.00 0.00 72 1016.3
20260906084004 30 284 19.3 24.1 0.00 0.00 0.00 73 1016.3
20260906083503 30 279 17.7 27.4 0.00 0.00 0.00 74 1016.3
20260906083004 29 274 17.7 27.4 0.00 0.00 0.00 75 1016.3
20260906082503 29 270 17.7 29.0 0.00 0.00 0.00 75 1016.3
20260906082214 29 274 16.1 29.0 0.00 0.00 0.00 75 1016.3
20260906081504 29 291 17.7 22.5 0.00 0.00 0.00 76 1016.3
20260906081003 29 286 16.1 22.5 0.00 0.00 0.00 76 1016.3
20260906080503 29 275 14.5 24.1 0.00 0.00 0.00 76 1016.3
20260906080216 29 289 16.1 24.1 0.00 0.00 0.00 76 1016.3
20260906075503 29 305 11.3 20.9 0.00 0.00 0.00 76 1016.3
20260906075004 29 322 9.7 14.5 0.00 0.00 0.00 76 1016.3
20260906074504 28 321 11.3 14.5 0.00 0.00 0.00 76 1016.3
20260906074003 28 318 11.3 17.7 0.00 0.00 0.00 77 1016.3
20260906073503 28 321 9.7 17.7 0.00 0.00 0.00 79 1016.3
20260906073003 28 324 14.5 20.9 0.00 0.00 0.00 81 1016.3
20260906072503 28 313 16.1 20.9 0.00 0.00 0.00 82 1016.3
20260906072003 27 305 14.5 20.9 0.00 0.00 0.00 85 1016.3
20260906071503 27 313 12.9 20.9 0.00 0.00 0.00 85 1016.3
20260906071003 27 323 16.1 20.9 0.00 0.00 0.00 85 1016.3
20260906070503 27 319 16.1 20.9 0.00 0.00 0.00 86 1016.3
20260906070005 27 315 14.5 16.1 0.00 0.00 0.00 87 1016.3
20260906065503 27 318 11.3 16.1 0.00 0.00 0.00 88 1016.3
20260906065003 26 313 9.7 16.1 0.00 0.00 0.00 89 1016.3
20260906064503 26 312 11.3 16.1 0.00 0.00 0.00 89 1016.3
20260906064003 26 318 9.7 16.1 0.00 0.00 0.00 89 1016.3
20260906063504 26 331 8.0 14.5 0.00 0.00 0.00 90 1016.3
20260906063003 25 326 8.0 14.5 0.00 0.00 0.00 90 1016.3
20260906062503 25 320 6.4 8.0 0.00 0.00 0.00 91 1016.3
20260906062006 25 320 4.8 8.0 0.00 0.00 0.00 91 1016.3
20260906061504 24 353 3.2 6.4 0.00 0.00 0.00 92 1015.3
20260906061004 23 360 3.2 6.4 0.00 0.00 0.00 92 1015.3
20260906060504 23 6 3.2 6.4 0.00 0.00 0.00 92 1015.3
20260906060004 22 360 3.2 6.4 0.00 0.00 0.00 93 1015.3
20260906055715 22 351 3.2 4.8 0.00 0.00 0.00 93 1015.3
20260906055004 22 345 4.8 6.4 0.00 0.00 0.00 92 1015.3
20260906054504 21 346 4.8 8.0 0.00 0.00 0.00 92 1015.3
20260906054214 21 347 3.2 8.0 0.00 0.00 0.00 92 1015.3
20260906053504 21 15 3.2 8.0 0.00 0.00 0.00 91 1015.3
20260906053215 21 13 4.8 8.0 0.00 0.00 0.00 90 1015.3
20260906052505 21 356 4.8 6.4 0.00 0.00 0.00 90 1015.3
20260906052004 21 356 4.8 6.4 0.00 0.00 0.00 89 1015.3
20260906051504 21 360 4.8 6.4 0.00 0.00 0.00 89 1015.3
20260906051004 21 2 4.8 6.4 0.00 0.00 0.00 89 1015.3
20260906050504 20 12 4.8 6.4 0.00 0.00 0.00 88 1015.3
20260906050004 20 19 4.8 4.8 0.00 0.00 0.00 88 1015.3
20260906045504 20 14 3.2 4.8 0.00 0.00 0.00 87 1015.3
20260906045003 20 3 1.6 3.2 0.00 0.00 0.00 87 1015.3
20260906044504 20 315 0.0 1.6 0.00 0.00 0.00 87 1015.3
20260906044215 21 315 0.0 1.6 0.00 0.00 0.00 87 1015.3
20260906043504 21 353 1.6 3.2 0.00 0.00 0.00 86 1015.3
20260906043004 21 321 1.6 4.8 0.00 0.00 0.00 86 1015.3
20260906042503 21 315 1.6 4.8 0.00 0.00 0.00 86 1015.3
20260906042003 21 331 1.6 4.8 0.00 0.00 0.00 86 1015.3
20260906041504 21 360 1.6 3.2 0.00 0.00 0.00 86 1015.3
20260906041004 21 360 1.6 3.2 0.00 0.00 0.00 86 1015.3
20260906040715 21 360 0.0 3.2 0.00 0.00 0.00 86 1015.3
20260906040003 21 360 0.0 3.2 0.00 0.00 0.00 86 1015.3
20260906035503 21 0 0.0 0.0 0.00 0.00 0.00 86 1015.3
20260906035003 21 315 1.6 4.8 0.00 0.00 0.00 86 1015.3
20260906034503 21 329 3.2 4.8 0.00 0.00 0.00 86 1015.3
20260906034003 21 326 3.2 4.8 0.00 0.00 0.00 86 1015.3
20260906033504 21 315 3.2 4.8 0.00 0.00 0.00 85 1015.3
20260906033003 21 332 4.8 8.0 0.00 0.00 0.00 85 1015.3
20260906032503 21 342 4.8 8.0 0.00 0.00 0.00 85 1015.3
20260906032003 21 337 4.8 8.0 0.00 0.00 0.00 85 1015.3
20260906031715 21 337 4.8 9.7 0.00 0.00 0.00 84 1015.3
20260906031004 21 327 4.8 9.7 0.00 0.00 0.00 84 1015.3
20260906030503 21 320 3.2 6.4 0.00 0.00 0.00 84 1015.3
20260906030214 21 322 3.2 8.0 0.00 0.00 0.00 84 1015.3
20260906025503 21 317 6.4 8.0 0.00 0.00 0.00 83 1015.3
20260906025003 21 315 6.4 9.7 0.00 0.00 0.00 83 1015.3
20260906024504 22 310 8.0 12.9 0.00 0.00 0.00 83 1015.3
20260906024003 22 306 8.0 12.9 0.00 0.00 0.00 83 1015.3
20260906023503 22 304 6.4 11.3 0.00 0.00 0.00 83 1015.3
20260906023004 22 301 6.4 11.3 0.00 0.00 0.00 83 1015.3
20260906022504 22 303 6.4 8.0 0.00 0.00 0.00 83 1015.3
20260906022004 22 313 4.8 6.4 0.00 0.00 0.00 83 1015.3
20260906021504 22 325 4.8 8.0 0.00 0.00 0.00 82 1015.3
20260906021004 22 330 3.2 8.0 0.00 0.00 0.00 82 1015.3
20260906020504 22 325 1.6 3.2 0.00 0.00 0.00 82 1015.3
20260906020004 22 355 1.6 4.8 0.00 0.00 0.00 82 1015.3
20260906015504 22 360 3.2 6.4 0.00 0.00 0.00 82 1015.3
20260906015004 22 360 4.8 6.4 0.00 0.00 0.00 81 1015.3
20260906014504 22 360 4.8 6.4 0.00 0.00 0.00 80 1015.3
20260906014004 22 360 4.8 6.4 0.00 0.00 0.00 79 1015.3
20260906013505 22 360 3.2 6.4 0.00 0.00 0.00 78 1015.3
20260906013217 22 360 3.2 6.4 0.00 0.00 0.00 77 1015.3
20260906012715 22 352 3.2 4.8 0.00 0.00 0.00 77 1015.3
20260906012004 22 355 3.2 4.8 0.00 0.00 0.00 76 1015.3
20260906011716 22 4 3.2 4.8 0.00 0.00 0.00 76 1015.3
20260906011004 22 3 4.8 6.4 0.00 0.00 0.00 75 1015.3
20260906010504 22 351 3.2 6.4 0.00 0.00 0.00 75 1015.3
20260906010215 22 347 3.2 6.4 0.00 0.00 0.00 75 1015.3
20260906005504 23 360 1.6 3.2 0.00 0.00 0.00 74 1015.3
20260906005003 23 360 3.2 4.8 0.00 0.00 0.00 74 1015.3
20260906004504 23 360 1.6 4.8 0.00 0.00 0.00 74 1015.3
20260906004003 23 360 1.6 4.8 0.00 0.00 0.00 74 1015.3
20260906003503 23 360 1.6 4.8 0.00 0.00 0.00 74 1015.3
20260906003003 24 360 0.0 3.2 0.00 0.00 0.00 74 1015.3
20260906002503 24 0 0.0 0.0 0.00 0.00 0.00 74 1015.3
20260906002214 24 270 0.0 3.2 0.00 0.00 0.00 74 1015.3
20260906001503 24 270 1.6 6.4 0.00 0.00 0.00 74 1015.3
20260906001003 24 5 1.6 4.8 0.00 0.00 0.00 74 1015.3
20260906000503 24 14 1.6 4.8 0.00 0.00 0.00 74 1015.3
20260906000003 24 15 1.6 4.8 0.00 0.00 0.00 74 1015.3
20260905235503 24 166 1.6 3.2 0.00 0.00 0.00 74 1015.3
20260905235003 24 177 1.6 3.2 0.00 0.00 0.00 73 1015.3
20260905234503 24 327 3.2 8.0 0.00 0.00 0.00 73 1015.3
20260905234213 24 326 6.4 9.7 0.00 0.00 0.00 73 1015.3
20260905233503 24 319 6.4 9.7 0.00 0.00 0.00 73 1015.3
20260905233003 24 318 4.8 6.4 0.00 0.00 0.00 73 1015.3
20260905232503 24 336 3.2 6.4 0.00 0.00 0.00 73 1015.3
20260905232003 24 343 4.8 8.0 0.00 0.00 0.00 73 1015.3
20260905231503 24 326 6.4 8.0 0.00 0.00 0.00 73 1015.3
20260905231003 24 326 6.4 9.7 0.00 0.00 0.00 73 1015.3
20260905230503 25 326 8.0 9.7 0.00 0.00 0.00 73 1015.3
20260905230216 25 326 8.0 11.3 0.00 0.00 0.00 73 1015.3
20260905225503 25 326 8.0 11.3 0.00 0.00 0.00 74 1015.3
20260905225003 25 324 8.0 9.7 0.00 0.00 0.00 73 1015.3
20260905224715 25 320 8.0 11.3 0.00 0.00 0.00 73 1015.3
20260905224004 25 321 6.4 11.3 0.00 0.00 0.00 74 1015.3
20260905223504 25 318 4.8 8.0 0.00 0.00 0.00 74 1015.3
20260905223214 25 325 4.8 8.0 0.00 0.00 0.00 74 1015.3
20260905222504 25 345 6.4 8.0 0.00 0.00 0.00 74 1015.3
20260905222004 25 346 4.8 8.0 0.00 0.00 0.00 74 1015.3
20260905221718 25 352 4.8 6.4 0.00 0.00 0.00 74 1015.3
20260905221004 25 337 4.8 6.4 0.00 0.00 0.00 74 1015.3
20260905220504 25 337 8.0 14.5 0.00 0.00 0.00 74 1015.3
20260905220004 25 337 8.0 14.5 0.00 0.00 0.00 74 1015.3
20260905215715 25 332 6.4 11.3 0.00 0.00 0.00 74 1015.3
20260905215004 25 330 9.7 14.5 0.00 0.00 0.00 74 1015.3
20260905214504 25 333 11.3 14.5 0.00 0.00 0.00 74 1015.3
20260905214004 25 315 11.3 12.9 0.00 0.00 0.00 73 1015.3
20260905213504 25 319 8.0 12.9 0.00 0.00 0.00 73 1015.3
20260905213004 25 328 6.4 9.7 0.00 0.00 0.00 73 1015.3
20260905212504 25 321 6.4 9.7 0.00 0.00 0.00 73 1015.3
20260905212004 25 319 8.0 11.3 0.00 0.00 0.00 72 1015.3
20260905211504 25 320 8.0 11.3 0.00 0.00 0.00 72 1015.3
20260905211003 25 330 8.0 11.3 0.00 0.00 0.00 72 1015.3
20260905210715 25 340 8.0 12.9 0.00 0.00 0.00 71 1015.3
20260905210004 25 331 9.7 14.5 0.00 0.00 0.00 71 1015.3
20260905205504 25 305 6.4 9.7 0.00 0.00 0.00 71 1015.3
20260905205003 25 302 3.2 8.0 0.00 0.00 0.00 71 1015.3
20260905204503 25 318 3.2 6.4 0.00 0.00 0.00 71 1015.3
20260905204004 26 306 3.2 6.4 0.00 0.00 0.00 71 1015.3
20260905203503 26 327 8.0 11.3 0.00 0.00 0.00 71 1015.3
20260905203003 26 332 6.4 11.3 0.00 0.00 0.00 71 1015.3
20260905202503 26 315 3.2 8.0 0.00 0.00 0.00 71 1015.3
20260905202004 26 332 1.6 3.2 0.00 0.00 0.00 70 1015.3
20260905201503 26 349 3.2 6.4 0.00 0.00 0.00 71 1015.3
20260905201217 26 346 3.2 6.4 0.00 0.00 0.00 70 1015.3
20260905200503 26 353 3.2 6.4 0.00 0.00 0.00 70 1015.3
20260905200003 26 347 3.2 6.4 0.00 0.00 0.00 70 1015.3
20260905195503 26 339 3.2 6.4 0.00 0.00 0.00 70 1015.3
20260905195004 26 347 3.2 6.4 0.00 0.00 0.00 70 1015.3
20260905194503 26 351 3.2 6.4 0.00 0.00 0.00 70 1015.3
20260905194215 26 347 3.2 4.8 0.00 0.00 0.00 69 1015.3
20260905193503 27 343 3.2 4.8 0.00 0.00 0.00 68 1015.3
20260905193216 27 343 1.6 4.8 0.00 0.00 0.00 68 1015.3
20260905192714 27 3 1.6 3.2 0.00 0.00 0.00 68 1015.3
20260905192003 27 351 1.6 3.2 0.00 0.00 0.00 68 1015.3
20260905191715 27 348 1.6 3.2 0.00 0.00 0.00 68 1015.3
20260905191213 27 333 3.2 4.8 0.00 0.00 0.00 68 1015.3
20260905190503 27 311 1.6 4.8 0.00 0.00 0.00 68 1015.3
20260905190003 28 346 1.6 4.8 0.00 0.00 0.00 68 1015.3
20260905185503 28 360 3.2 4.8 0.00 0.00 0.00 68 1015.3
20260905185003 28 345 3.2 8.0 0.00 0.00 0.00 68 1015.3
20260905184504 28 335 6.4 8.0 0.00 0.00 0.00 68 1015.3
20260905184004 28 327 8.0 9.7 0.00 0.00 0.00 68 1015.3
20260905183506 28 318 9.7 16.1 0.00 0.00 0.00 68 1015.3
20260905183004 28 325 11.3 16.1 0.00 0.00 0.00 68 1015.3
20260905182504 28 332 8.0 14.5 0.00 0.00 0.00 67 1015.3
20260905182004 28 319 9.7 16.1 0.00 0.00 0.00 66 1015.3
20260905181504 29 313 11.3 16.1 0.00 0.00 0.00 66 1014.3
20260905181213 29 313 9.7 16.1 0.00 0.00 0.00 66 1014.3
20260905180504 29 326 11.3 14.5 0.00 0.00 0.00 65 1014.3
20260905180004 29 331 11.3 17.7 0.00 0.00 0.00 65 1014.3
20260905175504 29 335 11.3 17.7 0.00 0.00 0.00 65 1014.3
20260905175004 30 328 11.3 17.7 0.00 0.00 0.00 64 1014.3
20260905174504 30 324 12.9 17.7 0.00 0.00 0.00 64 1014.3
20260905174216 30 326 12.9 17.7 0.00 0.00 0.00 64 1014.3
20260905173504 30 320 12.9 17.7 0.00 0.00 0.00 63 1014.3
20260905173004 30 315 12.9 17.7 0.00 0.00 0.00 63 1014.3
20260905172504 30 319 14.5 20.9 0.00 0.00 0.00 62 1014.3
20260905172004 30 319 14.5 20.9 0.00 0.00 0.00 62 1014.3
20260905171716 30 322 12.9 17.7 0.00 0.00 0.00 62 1014.3
20260905171005 30 329 14.5 19.3 0.00 0.00 0.00 61 1014.3
20260905170503 31 323 16.1 25.7 0.00 0.00 0.00 60 1014.3
20260905170215 31 316 17.7 25.7 0.00 0.00 0.00 59 1014.3
20260905165504 31 322 17.7 24.1 0.00 0.00 0.00 58 1014.3
20260905165003 31 321 19.3 24.1 0.00 0.00 0.00 58 1014.3
20260905164503 31 323 20.9 29.0 0.00 0.00 0.00 57 1014.3
20260905164003 31 320 19.3 29.0 0.00 0.00 0.00 56 1014.3
20260905163504 31 309 17.7 27.4 0.00 0.00 0.00 56 1014.3
20260905163004 32 310 19.3 25.7 0.00 0.00 0.00 55 1014.3
20260905162503 32 312 17.7 25.7 0.00 0.00 0.00 57 1014.3
20260905162004 32 300 19.3 27.4 0.00 0.00 0.00 57 1014.3
20260905161504 31 305 22.5 32.2 0.00 0.00 0.00 57 1014.3
20260905161003 32 305 22.5 32.2 0.00 0.00 0.00 57 1014.3
20260905160503 32 294 22.5 32.2 0.00 0.00 0.00 57 1014.3
20260905160003 32 298 24.1 33.8 0.00 0.00 0.00 57 1014.3
20260905155503 32 289 25.7 33.8 0.00 0.00 0.00 57 1014.3
20260905155003 32 290 24.1 30.6 0.00 0.00 0.00 57 1014.3
20260905154503 31 304 22.5 33.8 0.00 0.00 0.00 59 1014.3
20260905154003 32 300 24.1 33.8 0.00 0.00 0.00 59 1014.3
20260905153503 32 293 24.1 30.6 0.00 0.00 0.00 59 1014.3
20260905153213 31 292 24.1 30.6 0.00 0.00 0.00 59 1014.3
20260905152503 31 296 22.5 30.6 0.00 0.00 0.00 59 1014.3
20260905152003 32 301 24.1 38.6 0.00 0.00 0.00 60 1014.3
20260905151503 32 293 27.4 38.6 0.00 0.00 0.00 58 1014.3
20260905151215 32 294 30.6 38.6 0.00 0.00 0.00 57 1014.3
20260905150503 32 294 27.4 33.8 0.00 0.00 0.00 56 1014.3
20260905150003 32 285 25.7 32.2 0.00 0.00 0.00 56 1014.3
20260905145503 32 280 25.7 35.4 0.00 0.00 0.00 56 1014.3
20260905145003 32 278 24.1 35.4 0.00 0.00 0.00 55 1014.3
20260905144503 32 274 24.1 37.0 0.00 0.00 0.00 54 1014.3
20260905144004 32 276 29.0 37.0 0.00 0.00 0.00 56 1014.3
20260905143504 32 283 25.7 29.0 0.00 0.00 0.00 57 1014.3
20260905143004 32 281 25.7 33.8 0.00 0.00 0.00 57 1015.3
20260905142504 32 286 27.4 37.0 0.00 0.00 0.00 59 1015.3
20260905142004 32 299 25.7 37.0 0.00 0.00 0.00 59 1015.3
20260905141504 32 300 25.7 30.6 0.00 0.00 0.00 58 1015.3
20260905141005 32 289 27.4 32.2 0.00 0.00 0.00 60 1015.3
20260905140504 32 274 27.4 43.5 0.00 0.00 0.00 61 1015.3
20260905140004 32 272 29.0 43.5 0.00 0.00 0.00 61 1015.3
20260905135504 32 284 27.4 35.4 0.00 0.00 0.00 60 1015.3
20260905135218 32 294 27.4 33.8 0.00 0.00 0.00 60 1015.3
20260905134716 32 291 25.7 33.8 0.00 0.00 0.00 59 1015.3
20260905134004 32 292 22.5 35.4 0.00 0.00 0.00 59 1015.3
20260905133504 32 286 20.9 35.4 0.00 0.00 0.00 58 1015.3
20260905133004 32 282 22.5 27.4 0.00 0.00 0.00 58 1015.3
20260905132504 32 277 22.5 33.8 0.00 0.00 0.00 58 1015.3
20260905132216 32 276 24.1 33.8 0.00 0.00 0.00 57 1015.3
20260905131504 32 293 22.5 33.8 0.00 0.00 0.00 59 1015.3
20260905131004 32 292 22.5 32.2 0.00 0.00 0.00 56 1015.3
20260905130504 32 286 24.1 33.8 0.00 0.00 0.00 57 1015.3
20260905130004 32 286 22.5 33.8 0.00 0.00 0.00 54 1015.3
20260905125504 32 279 24.1 33.8 0.00 0.00 0.00 53 1015.3
20260905125004 32 282 24.1 33.8 0.00 0.00 0.00 51 1015.3
20260905124717 32 293 20.9 33.8 0.00 0.00 0.00 51 1015.3
20260905124004 32 288 19.3 33.8 0.00 0.00 0.00 51 1015.3
20260905123718 32 289 17.7 24.1 0.00 0.00 0.00 52 1015.3
20260905123004 32 291 17.7 24.1 0.00 0.00 0.00 50 1015.3
20260905122503 32 285 19.3 29.0 0.00 0.00 0.00 51 1015.3
20260905122216 32 295 20.9 29.0 0.00 0.00 0.00 51 1015.3
20260905121504 32 296 20.9 32.2 0.00 0.00 0.00 52 1015.3
20260905121004 32 276 19.3 32.2 0.00 0.00 0.00 52 1015.3
20260905120503 31 270 19.3 32.2 0.00 0.00 0.00 53 1015.3
20260905120003 31 267 19.3 27.4 0.00 0.00 0.00 54 1016.3
20260905115503 31 252 17.7 20.9 0.00 0.00 0.00 56 1016.3
20260905115003 31 211 17.7 27.4 0.00 0.00 0.00 62 1016.3
20260905114503 30 187 19.3 27.4 0.00 0.00 0.00 64 1016.3
20260905114003 30 180 20.9 27.4 0.00 0.00 0.00 65 1016.3